STARLINK-36202, 67094

Orbit data source: Space-Track

STARLINK-36202, 67094 is a payload satellite owned by SpaceX/Seattle (US) in LEO that was launched on Sun, 14 Dec 2025 UTC via an FALCON 9 launch vehicle from the Air Force Western Test Range (AFWTR). Payload-class satellites include a variety of spacecraft equipped with specific instruments for various scientific and technological missions. These include communications satellites like Starlink; space stations such as the ISS; scientific satellites like the Hubble; Earth observation satellites from companies like Planet Labs, Umbra, and HawkEye 360; GPS; miniature CubeSats for education and research; and military/defense satellites.

Loading next visibility...
Identifier
67094, 2025-298V
Orbit
LEO
Country
Flag of USUS
Related business
Manufacturer
SpaceX/Seattle
Mission
Operational Commercial Communications
Bus & Motor
STARLINK V2MO, Unknown motor
Mass
575 kg wet, ~530 kg dry
Launch date (UTC)
2025-12-14 (6 months ago)
Launch vehicle
FALCON 9
Launch site
Air Force Western Test Range (AFWTR)
Object type
Payload
Rocket body
Debris
Shape & HBR
Box + 2 Pan, 17.7 m
Radar Cross Section
36.964 m², Large (>1 m²)

Expand to show TLE details & history
Last TLE update: 16 hours ago

TLE from 16 hours ago
0 STARLINK-36202
1 67094U 25298V   26171.18308651  .00005009  00000-0  42720-3 0  9993
2 67094  70.0020 115.8880 0003346 261.2708  98.8072 14.98338219 28574
Epoch: 2026-06-20T04:23Z
TLE epoch observation values (Epoch: 2026-06-20T04:23:38.674Z)
Latitude
-0.00004°
Longitude
141.57547°
Altitude
574.811 km
Speed
7.573 km/s
True Right ascension
07h 43m 33s
True Declination
0° 00' 00"
Sunlit
Object was in daylight at epoch
Visualization orbit readout
Latitude
Unknown
Longitude
Unknown
Altitude
Unknown
Speed
Unknown
Apparent Right ascension
Unknown
Apparent Declination
Unknown
Sunlit
N/A
Visualization observer readout
Local Sidereal Time
07:23:25
Azimuth
Unknown
Elevation
Unknown
Doppler factor
Unknown
Orbital elements
Apogee altitude
572.303 km
Perigee altitude
567.654 km
Semi-major axis
6,948.115 km
Eccentricity
0.00033
Inclination
70.002°
RAAN
115.888°
Arg. of periapsis
261.2708°
True anomaly
98.84509°
Mean anomaly
98.8072°
Eccentric anomaly
98.82614°
Mean motion
3.74751 °/min
Orbital period
96.06 mins
BSTAR
0.0004272
Loading maneuver chart data...
Computing Atmospheric mass density...
Loading historical data...
Loading historical data...
Loading historical data...
Loading historical data...
Loading historical data...
Loading historical data...
Loading historical data...

Documentation

Showing up to 5 results
|